OBERSTADN Weather Reports


time (UTC)temp
F
wind
direction
speed
knots
gust
knots
rain 1hr
in
rain 24hr
in
rain mn
in
humidity
%
barometer
mb
20260506173210 50 180 9.6 0.0 0.00 0.00 0.26 90 1008.5
20260506170215 50 206 8.7 0.0 0.00 0.00 0.26 90 1008.0
20260506163210 50 254 13.0 0.0 0.00 0.00 0.25 89 1007.8
20260506160210 50 247 13.0 0.0 0.00 0.00 0.23 88 1007.7
20260506153210 53 267 20.0 0.0 0.00 0.00 0.16 85 1007.4
20260506150210 59 205 19.1 0.0 0.00 0.00 0.13 77 1006.4
20260506143210 64 265 5.2 0.0 0.00 0.00 0.00 60 1005.4
20260506140210 65 99 5.2 0.0 0.00 0.00 0.00 59 1005.4
20260506133211 64 307 5.2 0.0 0.00 0.00 0.00 59 1005.6
20260506130211 64 257 5.2 0.0 0.00 0.00 0.00 60 1005.7
20260506123210 63 223 6.1 0.0 0.00 0.00 0.00 63 1005.5
20260506120210 63 121 1.7 0.0 0.00 0.00 0.00 64 1005.4
20260506113217 62 47 1.7 0.0 0.00 0.00 0.00 64 1005.7
20260506110210 60 331 3.5 0.0 0.00 0.00 0.00 70 1005.9
20260506100213 60 336 2.6 0.0 0.00 0.00 0.00 73 1006.5
20260506093211 59 61 2.6 0.0 0.00 0.00 0.00 73 1006.6
20260506090211 58 9 1.7 0.0 0.00 0.00 0.00 79 1006.4
20260506083211 56 340 4.3 0.0 0.00 0.00 0.00 80 1006.4
20260506080212 56 344 3.5 0.0 0.00 0.00 0.00 81 1006.4
20260506073211 55 274 4.3 0.0 0.00 0.00 0.00 82 1006.7
20260506070212 54 165 4.3 0.0 0.00 0.00 0.00 86 1006.9
20260506060210 50 119 1.7 0.0 0.00 0.00 0.00 93 1006.7
20260506050211 45 317 0.9 0.0 0.00 0.00 0.00 91 1007.0
20260506043211 45 309 4.3 0.0 0.00 0.00 0.00 90 1007.2
20260506040211 46 130 2.6 0.0 0.00 0.00 0.00 90 1007.4
20260506033211 47 323 0.9 0.0 0.00 0.00 0.00 89 1007.7
20260506030212 48 211 2.6 0.0 0.00 0.00 0.00 90 1007.7
20260506023211 49 156 0.9 0.0 0.00 0.00 0.00 88 1008.1
20260506020212 50 346 0.9 0.0 0.00 0.00 0.00 88 1008.1
20260506013211 50 270 2.6 0.0 0.00 0.00 0.00 88 1008.3
20260506010213 51 227 7.0 0.0 0.00 0.00 0.00 88 1008.6
20260506003209 51 234 5.2 0.0 0.00 0.00 0.00 88 1008.4
20260506000211 50 200 7.0 0.0 0.00 0.00 0.00 87 1008.8
20260505233209 51 217 4.3 0.0 0.00 0.00 0.00 87 1009.0
20260505230209 51 192 4.3 0.0 0.00 0.00 0.00 85 1009.0
20260505223210 52 198 6.1 0.0 0.00 0.00 0.00 84 1009.1
20260505213211 54 249 8.7 0.0 0.00 0.00 0.00 81 1009.1
20260505210215 55 247 6.1 0.0 0.00 0.00 0.00 79 1009.1
20260505203209 56 235 7.0 0.0 0.00 0.00 0.00 78 1008.7
20260505200210 57 194 8.7 0.0 0.00 0.00 0.00 77 1009.0
20260505193209 58 195 7.8 0.0 0.00 0.00 0.00 77 1008.8
20260505190215 60 236 12.2 0.0 0.00 0.00 0.00 75 1008.2
20260505183212 61 202 9.6 0.0 0.00 0.00 0.00 69 1007.7
20260505180211 62 275 8.7 0.0 0.00 0.00 0.00 64 1007.3